Regional Weather Roundup
Issued by NWS

Home | Current Version | Previous Version | Text Only | Print | Product List | Glossary Off
Versions: 1 2 3 4 5 6 7 8 9 10 11 12 13 14 15 16 17 18 19 20 21 22 23 24 25 26 27 28 29 30 31 32 33 34 35 36 37 38 39 40 41 42 43 44 45 46 47 48 49 50

000
ASUS43 KMKX 210810
RWRWI

WISCONSIN REGIONAL WEATHER ROUNDUP
NATIONAL WEATHER SERVICE MILWAUKEE/SULLIVAN WI
200 AM CST SAT JAN 21 2017

NOTE: "FAIR" INDICATES FEW OR NO CLOUDS BELOW 12,000 FEET WITH NO
SIGNIFICANT WEATHER AND/OR OBSTRUCTIONS TO VISIBILITY.

WIZ001-002-006>008-014>016-023>028-210900-
NORTHWEST WISCONSIN

CITY           SKY/WX    TMP DP  RH WIND       PRES   REMARKS
SUPERIOR ARPT  CLOUDY    34  34 100 E5        29.56S FOG     WCI  30
ASHLAND        CLOUDY    35  34  96 E3        29.59S
HAYWARD        CLOUDY    35  33  92 E5        29.56S FOG     WCI  31
SIREN          FOG       34  34  99 CALM      29.53F VSB 3/4
CUMBERLAND     FOG       32  32 100 SE6       29.54R VSB 1/4 WCI  26
RICE LAKE      FOG       34  34 100 SE6       29.56S VSB 3/4 WCI  29
CHETEK         CLOUDY    34  34 100 E6        29.55S FOG     WCI  29
LADYSMITH      CLOUDY    35  34  97 E8        29.58S FOG     WCI  28
EAU CLAIRE     CLOUDY    34  34 100 E7        29.53F FOG     WCI  28
MENOMONIE        N/A    N/A N/A N/A MISG        N/A
NEW RICHMOND   FOG       34  34 100 E3        29.52F VSB 3/4
OSCEOLA        CLOUDY    35  35 100 E7        29.55F FOG     WCI  29
$$

WIZ003>005-009-010-017-018-210900-
NORTH CENTRAL WISCONSIN

CITY           SKY/WX    TMP DP  RH WIND       PRES   REMARKS
MANITOWISH WTR CLOUDY    32  32 100 SE7       29.58S WCI  26
ARBOR VITAE    CLOUDY    34  33  96 SE6       29.59S FOG     WCI  29
WOODRUFF       CLOUDY    34  33  96 SE6       29.59S FOG     WCI  29
RHINELANDER    CLOUDY    33  33 100 E7        29.60S FOG     WCI  27
EAGLE RIVER    CLOUDY    32  32 100 SE5       29.60S WCI  28
LAND O LAKES   CLOUDY    33  33 100 SE5       29.61S WCI  29
PHILLIPS       CLOUDY    32  32 100 SE8       29.57S FOG     WCI  25
TOMAHAWK       CLOUDY    32  32  99 E3        29.59F FOG
MEDFORD        FOG       32  32  99 E7        29.56S VSB 1/4 WCI  26
MERRILL        CLOUDY    33  33 100 E5          N/A  FOG     WCI  29
$$

WIZ029-030-035-036-043>047-210900-
CENTRAL WISCONSIN

CITY           SKY/WX    TMP DP  RH WIND       PRES   REMARKS
WAUSAU         CLOUDY    33  33 100 E7        29.58F FOG     WCI  27
MOSINEE        FOG       32  32 100 E7        29.60S VSB 1/4 WCI  26
MARSHFIELD     FOG       33  33 100 E8        29.55F VSB 1/4 WCI  26
STEVENS POINT  FOG       32  32 100 E5        29.59F VSB 1/2 WCI  27
WAUPACA        CLOUDY    36  35  96 CALM      29.61S FOG
WAUTOMA        FOG       34  34 100 E6        29.60S VSB 3/4 WCI  29
WISC RAPIDS    LGT RAIN  34  34 100 E9        29.58F FOG     WCI  27
CAMP DOUGLAS   FOG       34  34 100 E7        29.55S VSB 1/2 WCI  28
$$

WIZ011>013-019>022-031-037>040-048>050-210900-
NORTHEAST WISCONSIN

CITY           SKY/WX    TMP DP  RH WIND       PRES   REMARKS
ANTIGO         FOG       32  32 100 SE5       29.60F VSB 1/2 WCI  27
SHAWANO        FOG       34  33  96 NE3       29.64F VSB 1/2
OCONTO         CLOUDY    32  32  99 E3        29.65F VSB 1
STURGEON BAY   LGT RAIN  34  34 100 E3        29.66F VSB 3/4
GREEN BAY      FOG       35  35 100 NE6       29.63F VSB 1/2 WCI  30
MANITOWOC      FOG       36  35  96 MISG      29.65S VSB 1/4
APPLETON       CLOUDY    34  34 100 E6        29.60S FOG     WCI  29
CLINTONVILLE   FOG       32  32 100 E6        29.63S VSB 1/2 WCI  26
OSHKOSH        FOG       34  33  96 E8        29.60F VSB 1/4 WCI  27
$$

WIZ032>034-041-042-053>061-210900-
SOUTHWEST WISCONSIN

CITY           SKY/WX    TMP DP  RH WIND       PRES   REMARKS
LA CROSSE      CLOUDY    39  36  89 CALM      29.52F
SPARTA         CLOUDY    34  34 100 E5        29.55F FOG     WCI  30
VIROQUA        CLOUDY    34  34 100 E8        29.51F VSB 1/4 WCI  27
BOSCOBEL       CLOUDY    37  36  96 NE5       29.53F FOG     WCI  33
PRAIRIE DU CHI CLOUDY    36  35  96 CALM      29.51F FOG
PLATTEVILLE    CLOUDY    37  37 100 E10       29.52S VSB 1/4 WCI  29
$$

WIZ056-057-062-063-064-067-068-210900-
SOUTH CENTRAL WISCONSIN

CITY           SKY/WX    TMP DP  RH WIND       PRES   REMARKS
REEDSBURG      FOG       34  34 100 E5        29.55F VSB 1/2 WCI  30
BARABOO/DELLS  FOG       34  34 100 E6        29.55F VSB<1/4 WCI  29
LONE ROCK      CLOUDY    37  36  96 E7        29.55F FOG     WCI  32
MINERAL POINT  FOG       37  37 100 E9        29.52F VSB 1/2 WCI  31
MADISON        CLOUDY    36  36 100 E5        29.57F FOG     WCI  32
MIDDLETON      CLOUDY    37  37 100 CALM      29.56F VSB 3/4
WATERTOWN      CLOUDY    36  36 100 E8        29.57F FOG     WCI  30
MONROE         FOG       36  36 100 E6        29.54S VSB 1/4 WCI  31
JANESVILLE     CLOUDY    37  37 100 E6        29.56S FOG     WCI  33
$$

WIZ051-052-058>065-066-070>072-210900-
SOUTHEAST WISCONSIN

CITY           SKY/WX    TMP DP  RH WIND       PRES   REMARKS
MILWAUKEE      FOG       39  38  96 CALM      29.61S VSB 1/8
WAUKESHA       DRIZZLE   34  34 100 E3        29.61S
MILWAUKEE/TIMM FOG       36  34  93 E3        29.61S VSB 3/4
RACINE         FOG       39  38  96 E3        29.62S VSB 1/4
KENOSHA        FOG       38  37  97 VRB5      29.60S VSB 1/4 WCI  34
FOND DU LAC    CLOUDY    36  34  92 E3        29.60F FOG
SHEBOYGAN      FOG       36  35  96 E3        29.63S VSB 1/4
WEST BEND      LGT RAIN  34  34 100 NE3       29.60F VSB 1/4
JUNEAU         FOG       35  35  99 E7        29.59S VSB 1/2 WCI  30
$$

LSZ147-162-210900-
LAKE SUPERIOR

STATION/POSITION TIME  TEMP    WIND        PRES    WAVE
                       AIR SEA DIR/SP/G            HT/PER
                 (UTC) (F)     (DEG/KT/KT) (MB)    (FT/S)
DEVILS ISLAND    0800   35     130/  7/  8 1002.9F
PORT WING        0740   33      40/  1/  2 1002.0S
SAXON HARBOR     0730   33      CALM  /  1 1002.4S
$$

LMZ867-665-643>646-210900-
LAKE MICHIGAN

STATION/POSITION TIME  TEMP    WIND        PRES    WAVE
                       AIR SEA DIR/SP/G            HT/PER
                 (UTC) (F)     (DEG/KT/KT) (MB)    (FT/S)
NORTHPORT PIER   0740   32        CALM     1004.7F
SISTER BAY       0720   34     130/  1/  3   N/A
KEWAUNEE LAKESHO 0748   36      80/  2/  5 1003.9F
SHEBOYGAN LAKESH 0800   37     100/ 11/ 11 1003.7F
PORT WASHINGTON  0740   37      30/  6/  8 1004.1F
KENOSHA   LAKESH 0800   36        CALM     1002.7
$$

TC  - TEMPERATURE IN CELSIUS
VSB - VISIBILITY IN STATUTE MILES
WCI - WIND CHILL INDEX
HX  - HEAT INDEX





USA.gov is the U.S. government's official web portal to all federal, state and local government web resources and services.